Regional Weather Roundup
Issued by NWS

Home | Current Version | Previous Version | Graphics & Text | Print | Product List | Glossary On
Versions: 1 2 3 4 5 6 7 8 9 10 11 12 13 14 15 16 17 18 19 20 21 22 23 24 25 26 27 28 29 30 31 32 33 34 35 36 37 38 39 40 41 42 43 44 45 46 47 48 49 50
416
ASUS43 KIND 271509
RWRIN

WEATHER ROUNDUP FOR INDIANA
NATIONAL WEATHER SERVICE INDIANAPOLIS IN
1100 AM EDT SAT MAY 27 2017

NOTE: "FAIR" INDICATES FEW OR NO CLOUDS BELOW 12,000 FEET WITH NO
SIGNIFICANT WEATHER AND/OR OBSTRUCTIONS TO VISIBILITY.

* - STATION DOES NOT REPORT WEATHER SUCH AS PRECIPITATION OR FOG.

+ - STATION NOT QUALITY CONTROLLED BY THE NATIONAL WEATHER SERVICE.
    USE DATA WITH CAUTION...ESPECIALLY DEWPOINT AND RELATIVE
    HUMIDITY OBSERVATIONS.

INZ001>003-010>013-019-020-271600-
NORTHWEST INDIANA

CITY           SKY/WX    TMP DP  RH WIND       PRES   REMARKS
GARY /AIRPORT/ PTSUNNY   59  54  82 VRB5      29.94S
KNOX *+        CLOUDY    63  54  72 CALM      29.92S
LA PORTE +     CLOUDY    62  59  89 N5        29.92F
MICHIGAN CITY+ CLOUDY    61  61 100 CALM      29.93F
MONTICELLO +   CLOUDY    63  61  94 N7        29.89F
RENSSELAER +   CLOUDY    64  61  88 N7        29.91S
VALPARAISO     CLOUDY    67  60  78 N7        29.92F

$$

LMZ046-743>745-271600-
SOUTHERN LAKE MICHIGAN

STATION/POSITION TIME  TEMP    WIND        PRES    WAVE
                       AIR SEA DIR/SP/G            HT
                 (UTC) (F)     (DEG/KT/KT) (MB)    (FT)
BURNS HARBOR     1440   54      CALM  /  1 1014.2R
MICHIGAN CITY    1440   55     350/  2/  3   N/A
5NW MICH CITY    1450   54 54  290/  2/  4   N/A     1

$$

INZ004-005-014>016-021>024-271600-
NORTH CENTRAL INDIANA

CITY           SKY/WX    TMP DP  RH WIND       PRES   REMARKS
ELKHART        CLOUDY    64  59  82 CALM      29.92S
GOSHEN         CLOUDY    66  58  75 CALM      29.91S
LOGANSPORT +   CLOUDY    63  61  94 N7        29.90F FOG
PERU/GRISSOM   CLOUDY    63  63 100 N7        29.88F FOG
ROCHESTER +    CLOUDY    64  63  94 N3        29.91S FOG
SOUTH BEND     CLOUDY    63  60  90 N5        29.92S
WARSAW +       CLOUDY    63  59  88 NE3       29.91S

$$

INZ006>009-017-018-025>027-271600-
NORTHEAST INDIANA

CITY           SKY/WX    TMP DP  RH WIND       PRES   REMARKS
ANGOLA *+      CLOUDY    64  61  88 SE3       29.91R
AUBURN +       PTSUNNY   64  59  82 CALM      29.91R
FORT WAYNE     CLOUDY    66  61  84 E3        29.90R
HUNTINGTON +   CLOUDY    64  63  95 CALM      29.89S
KENDALLVILLE + CLOUDY    64  60  86 CALM      29.92R

$$

INZ028-029-035-036-043>045-051>053-271600-
WEST CENTRAL INDIANA

CITY           SKY/WX    TMP DP  RH WIND       PRES   REMARKS
CRAWFORDSVL +  CLOUDY   -35 -35 100 N5        29.90R WCI -51
GREENCASTLE +  CLOUDY    68  61  77 N5        29.89S
LAFAYETTE      CLOUDY    66  63  90 N8        29.88F
TERRE HAUTE    CLOUDY    70  62  76 N3        29.88S

$$

INZ030>032-037>040-046>048-054>057-064-065-271600-
CENTRAL INDIANA

CITY           SKY/WX    TMP DP  RH WIND       PRES   REMARKS
ANDERSON       PTSUNNY  N/A N/A N/A NW12      29.88R
CP ATTERBURY + CLOUDY    73  64  73 CALM      29.87S
COLUMBUS       CLOUDY    73  64  73 SW5       29.87S
FISHERS *+     CLOUDY    68  64  88 W3        29.88R
FRANKFORT +    CLOUDY    66  64  93 N8        29.91R FOG
GREENWOOD *+   MOSUNNY   72  65  77 N7        29.88R
INDIANAPOLIS   CLOUDY    69  62  78 N8        29.87S
-EAGLE CREEK   CLOUDY    70  62  76 NW7       29.87S
KOKOMO +       CLOUDY    65  63  93 N12       29.89S FOG
MT COMFORT *+    N/A    N/A N/A N/A MISG        N/A
SHELBYVILLE    PTSUNNY   76  65  68 SW7       29.86R
ZIONSVILLE +   CLOUDY    66  62  88 N8        29.89R

$$

INZ033-034-041-042-049-050-058-059-271600-
EAST CENTRAL INDIANA

CITY           SKY/WX    TMP DP  RH WIND       PRES   REMARKS
MUNCIE         PTSUNNY   73  65  75 NW7       29.86F
RICHMOND +     CLOUDY    70  64  83 W5        29.88S

$$

INZ060-061-067>069-081>083-085>088-271600-
SOUTHWEST INDIANA

CITY           SKY/WX    TMP DP  RH WIND       PRES   REMARKS
EVANSVILLE     CLOUDY    78  69  73 SW6       29.89R
HUNTINGBURG *+ CLOUDY    74  70  87 S8        29.90R
WASHINGTON +   CLOUDY    73  68  82 S3        29.87S

$$

INZ062-063-066-070>080-084-089>092-271600-
SOUTH CENTRAL AND SOUTHEAST INDIANA

CITY           SKY/WX    TMP DP  RH WIND       PRES   REMARKS
BEDFORD +      PTSUNNY   73  66  78 S5        29.87S
BLOOMINGTON    PTSUNNY   74  64  71 W6        29.88R
MADISON *+     CLOUDY    73  66  78 SW6       29.92R
NORTH VERNON + CLOUDY    72  66  83 S7        29.89S
SEYMOUR +      CLOUDY    75  68  78 S8        29.88S

$$





USA.gov is the U.S. government's official web portal to all federal, state and local government web resources and services.